ICARMODO3 Weather Reports


Display with metric or nautical units.
time (UTC)temp
F
wind
direction
speed
MPH
gust
MPH
rain 1hr
in
rain 24hr
in
rain mn
in
humidity
%
barometer
mb
20260509221503 70 85 0.0 1.0 0.00 0.00 0.00 75 1009.5
20260509220002 70 90 0.0 0.0 0.00 0.00 0.00 75 1009.3
20260509214502 71 90 0.0 1.0 0.00 0.00 0.00 74 1009.3
20260509213117 72 89 0.0 1.0 0.00 0.00 0.00 73 1009.0
20260509211615 73 65 0.0 1.0 0.00 0.00 0.00 71 1009.0
20260509204604 76 74 2.0 4.0 0.00 0.00 0.00 68 1008.8
20260509203039 78 71 1.0 4.0 0.00 0.00 0.00 66 1008.9
20260509201528 80 65 1.0 3.0 0.00 0.00 0.00 62 1008.9
20260509200025 81 73 5.0 9.0 0.00 0.00 0.00 58 1008.8
20260509194523 82 65 5.0 10.0 0.00 0.00 0.00 57 1008.7
20260509193023 82 63 5.0 8.0 0.00 0.00 0.00 55 1008.8
20260509191521 83 40 3.0 8.0 0.00 0.00 0.00 52 1008.8
20260509190054 83 36 3.0 10.0 0.00 0.00 0.00 53 1008.7
20260509184549 83 35 4.0 11.0 0.00 0.00 0.00 51 1008.8
20260509183043 84 80 5.0 9.0 0.00 0.00 0.00 49 1008.8
20260509181545 83 143 1.0 11.0 0.00 0.00 0.00 53 1008.9
20260509180116 84 78 4.0 9.0 0.00 0.00 0.00 53 1009.0
20260509174538 83 56 6.0 10.0 0.00 0.00 0.00 52 1009.2
20260509173034 84 81 2.0 8.0 0.00 0.00 0.00 52 1009.1
20260509171533 84 315 0.0 7.0 0.00 0.00 0.00 53 1009.3
20260509170032 83 90 1.0 10.0 0.00 0.00 0.00 56 1009.5
20260509164532 85 262 1.0 4.0 0.00 0.00 0.00 53 1009.6
20260509163045 83 12 3.0 6.0 0.00 0.00 0.00 55 1009.9
20260509161528 85 42 4.0 9.0 0.00 0.00 0.00 54 1010.0
20260509160024 83 306 1.0 10.0 0.00 0.00 0.00 57 1010.2
20260509154522 82 37 5.0 12.0 0.00 0.00 0.00 56 1010.4
20260509153022 82 87 5.0 10.0 0.00 0.00 0.00 55 1010.6
20260509151518 82 53 4.0 11.0 0.00 0.00 0.00 57 1010.9
20260509150017 82 5 4.0 7.0 0.00 0.00 0.00 58 1011.1
20260509144516 81 40 6.0 13.0 0.00 0.00 0.00 59 1011.4
20260509143013 81 355 1.0 9.0 0.00 0.00 0.00 60 1011.5
20260509141510 81 44 5.0 13.0 0.00 0.00 0.00 60 1011.9
20260509140008 80 46 2.0 11.0 0.00 0.00 0.00 63 1012.1
20260509134506 80 24 5.0 10.0 0.00 0.00 0.00 62 1012.3
20260509133001 79 5 1.0 5.0 0.00 0.00 0.00 68 1012.3
20260509131558 79 23 2.0 7.0 0.00 0.00 0.00 67 1012.4
20260509130055 77 19 1.0 5.0 0.00 0.00 0.00 70 1012.4
20260509124600 75 50 0.0 5.0 0.00 0.00 0.00 76 1012.6
20260509123046 72 232 0.0 2.0 0.00 0.00 0.00 83 1012.8
20260509121541 70 271 1.0 5.0 0.00 0.00 0.00 87 1012.8
20260509120036 68 263 0.0 4.0 0.00 0.00 0.00 90 1012.6
20260509114534 67 225 0.0 2.0 0.00 0.00 0.00 92 1012.4
20260509113023 65 234 0.0 1.0 0.00 0.00 0.00 94 1012.2
20260509111519 63 219 0.0 0.0 0.00 0.00 0.00 95 1012.1
20260509110014 62 219 0.0 0.0 0.00 0.00 0.00 95 1012.0
20260509104511 60 219 0.0 0.0 0.00 0.00 0.00 95 1011.9
20260509103007 58 180 0.0 0.0 0.00 0.00 0.00 96 1011.6
20260509101500 58 180 0.0 0.0 0.00 0.00 0.00 95 1011.5
20260509100110 58 140 0.0 0.0 0.00 0.00 0.00 96 1011.4
20260509094553 58 140 0.0 0.0 0.00 0.00 0.00 96 1011.3
20260509093049 57 140 0.0 0.0 0.00 0.00 0.00 95 1011.1
20260509091549 57 140 0.0 1.0 0.00 0.00 0.00 95 1010.9
20260509090044 57 140 0.0 1.0 0.00 0.01 0.00 95 1010.5
20260509084547 57 153 0.0 1.0 0.00 0.01 0.00 95 1010.4
20260509083040 57 148 0.0 0.0 0.00 0.01 0.00 95 1010.2
20260509081509 57 148 0.0 1.0 0.00 0.01 0.00 95 1010.1
20260509080008 57 142 0.0 1.0 0.00 0.01 0.00 94 1009.9
20260509074503 57 140 0.0 1.0 0.00 0.01 0.00 94 1009.8
20260509073002 57 87 0.0 0.0 0.00 0.01 0.00 94 1009.6
20260509071600 57 85 0.0 1.0 0.00 0.01 0.00 93 1009.5
20260509070101 58 82 0.0 0.0 0.00 0.01 0.00 94 1009.5
20260509064555 58 82 0.0 0.0 0.00 0.01 0.00 93 1009.6
20260509063053 59 82 0.0 0.0 0.00 0.01 0.00 93 1009.6
20260509061556 59 82 0.0 0.0 0.00 0.01 0.00 93 1009.6
20260509060052 59 82 0.0 0.0 0.00 0.01 0.00 93 1009.7
20260509054549 59 82 0.0 0.0 0.00 0.01 0.00 92 1009.7
20260509053051 59 59 0.0 0.0 0.00 0.01 0.00 92 1009.8
20260509051557 60 59 0.0 2.0 0.00 0.01 0.00 93 1009.7
20260509050045 60 132 0.0 1.0 0.00 0.01 0.00 92 1009.6
20260509044515 60 153 0.0 0.0 0.00 0.01 0.00 92 1009.6
20260509043026 60 153 0.0 1.0 0.00 0.01 0.00 91 1009.5
20260509041509 61 153 0.0 2.0 0.00 0.01 0.00 92 1009.6
20260509040007 61 78 0.0 1.0 0.00 0.01 0.00 90 1009.5
20260509034502 62 78 0.0 0.0 0.00 0.01 0.00 91 1009.4
20260509033002 62 78 0.0 0.0 0.00 0.01 0.00 91 1009.4
20260509031558 62 78 0.0 0.0 0.00 0.01 0.00 90 1009.5
20260509030057 62 78 0.0 0.0 0.00 0.01 0.01 91 1009.7
20260509024556 62 78 0.0 0.0 0.00 0.01 0.01 91 1009.8
20260509023056 62 78 0.0 0.0 0.00 0.01 0.01 91 1009.7
20260509021529 62 78 0.0 0.0 0.00 0.01 0.01 90 1009.6
20260509020027 62 78 0.0 1.0 0.00 0.01 0.01 90 1009.6
20260509014521 63 78 0.0 0.0 0.00 0.01 0.01 89 1009.7
20260509013041 63 78 0.0 0.0 0.00 0.01 0.01 88 1009.6
20260509011521 64 78 0.0 0.0 0.00 0.01 0.01 87 1009.6
20260509010025 64 78 0.0 0.0 0.00 0.01 0.01 87 1009.6
20260509004534 65 78 0.0 0.0 0.00 0.01 0.01 86 1009.6
20260509003017 65 78 0.0 0.0 0.00 0.01 0.01 85 1009.6
20260509001516 66 78 0.0 0.0 0.00 0.01 0.01 83 1009.4
20260509000016 66 78 0.0 0.0 0.00 0.01 0.01 82 1009.4
20260508234513 67 78 0.0 0.0 0.00 0.01 0.01 80 1009.2
20260508233012 67 78 0.0 0.0 0.00 0.01 0.01 80 1009.1
20260508231512 68 78 0.0 0.0 0.00 0.01 0.01 79 1009.0
20260508230033 69 78 0.0 0.0 0.00 0.01 0.01 78 1008.8
20260508224509 69 78 0.0 1.0 0.00 0.01 0.01 77 1008.4
20260508223016 69 80 0.0 2.0 0.00 0.01 0.01 77 1008.1